Year,Month,Day,Hour,Minute,Value (Times are PST for temperature in C)
2017,06,26,00,00,19.20
2017,06,26,00,01,19.30
2017,06,26,00,02,19.30
2017,06,26,00,03,19.30
2017,06,26,00,04,19.30
2017,06,26,00,05,19.30
2017,06,26,00,06,19.40
2017,06,26,00,07,19.40
2017,06,26,00,08,19.50
2017,06,26,00,09,19.50
2017,06,26,00,10,19.50
2017,06,26,00,11,19.40
2017,06,26,00,12,19.40
2017,06,26,00,13,19.40
2017,06,26,00,14,19.40
2017,06,26,00,15,19.50
2017,06,26,00,16,19.40
2017,06,26,00,17,19.40
2017,06,26,00,18,19.40
2017,06,26,00,19,19.40
2017,06,26,00,20,19.40
2017,06,26,00,21,19.40
2017,06,26,00,22,19.40
2017,06,26,00,23,19.50
2017,06,26,00,24,19.50
2017,06,26,00,25,19.50
2017,06,26,00,26,19.50
2017,06,26,00,27,19.60
2017,06,26,00,28,19.60
2017,06,26,00,29,19.60
2017,06,26,00,30,19.60
2017,06,26,00,31,19.60
2017,06,26,00,32,19.60
2017,06,26,00,33,19.60
2017,06,26,00,34,19.70
2017,06,26,00,35,19.70
2017,06,26,00,36,19.70
2017,06,26,00,37,19.60
2017,06,26,00,38,19.50
2017,06,26,00,39,19.50
2017,06,26,00,40,19.40
2017,06,26,00,41,19.30
2017,06,26,00,42,19.20
2017,06,26,00,43,19.10
2017,06,26,00,44,19.10
2017,06,26,00,45,19.10
2017,06,26,00,46,19.00
2017,06,26,00,47,18.90
2017,06,26,00,48,18.90
2017,06,26,00,49,18.90
2017,06,26,00,50,18.90
2017,06,26,00,51,18.90
2017,06,26,00,52,18.90
2017,06,26,00,53,18.90
2017,06,26,00,54,18.90
2017,06,26,00,55,18.90
2017,06,26,00,56,18.90
2017,06,26,00,57,18.90
2017,06,26,00,58,18.90
2017,06,26,00,59,18.90
2017,06,26,01,00,18.90
2017,06,26,01,01,18.90
2017,06,26,01,02,18.80
2017,06,26,01,03,18.80
2017,06,26,01,04,18.80
2017,06,26,01,05,18.70
2017,06,26,01,06,18.70
2017,06,26,01,07,18.60
2017,06,26,01,08,18.60
2017,06,26,01,09,18.60
2017,06,26,01,10,18.50
2017,06,26,01,11,18.50
2017,06,26,01,12,18.50
2017,06,26,01,13,18.50
2017,06,26,01,14,18.50
2017,06,26,01,15,18.50
2017,06,26,01,16,18.60
2017,06,26,01,17,18.60
2017,06,26,01,18,18.60
2017,06,26,01,19,18.70
2017,06,26,01,20,18.70
2017,06,26,01,21,18.70
2017,06,26,01,22,18.80
2017,06,26,01,23,18.80
2017,06,26,01,24,18.80
2017,06,26,01,25,18.80
2017,06,26,01,26,18.80
2017,06,26,01,27,18.80
2017,06,26,01,28,18.90
2017,06,26,01,29,18.90
2017,06,26,01,30,18.90
2017,06,26,01,31,18.90
2017,06,26,01,32,18.90
2017,06,26,01,33,19.00
2017,06,26,01,34,19.00
2017,06,26,01,35,19.00
2017,06,26,01,36,19.00
2017,06,26,01,37,19.10
2017,06,26,01,38,19.10
2017,06,26,01,39,19.20
2017,06,26,01,40,19.20
2017,06,26,01,41,19.20
2017,06,26,01,42,19.30
2017,06,26,01,43,19.30
2017,06,26,01,44,19.50
2017,06,26,01,45,19.70
2017,06,26,01,46,19.90
2017,06,26,01,47,20.20
2017,06,26,01,48,20.50
2017,06,26,01,49,20.80
2017,06,26,01,50,21.00
2017,06,26,01,51,21.20
2017,06,26,01,52,21.40
2017,06,26,01,53,21.50
2017,06,26,01,54,21.70
2017,06,26,01,55,21.80
2017,06,26,01,56,21.90
2017,06,26,01,57,22.00
2017,06,26,01,58,22.10
2017,06,26,01,59,22.20
2017,06,26,02,00,22.30
2017,06,26,02,01,22.30
2017,06,26,02,02,22.40
2017,06,26,02,03,22.50
2017,06,26,02,04,22.50
2017,06,26,02,05,22.60
2017,06,26,02,06,22.60
2017,06,26,02,07,22.70
2017,06,26,02,08,22.70
2017,06,26,02,09,22.80
2017,06,26,02,10,22.80
2017,06,26,02,11,22.80
2017,06,26,02,12,22.90
2017,06,26,02,13,22.90
2017,06,26,02,14,22.90
2017,06,26,02,15,22.90
2017,06,26,02,16,22.80
2017,06,26,02,17,22.80
2017,06,26,02,18,22.80
2017,06,26,02,19,22.80
2017,06,26,02,20,22.90
2017,06,26,02,21,22.90
2017,06,26,02,22,23.00
2017,06,26,02,23,23.10
2017,06,26,02,24,23.10
2017,06,26,02,25,23.20
2017,06,26,02,26,23.20
2017,06,26,02,27,23.20
2017,06,26,02,28,23.30
2017,06,26,02,29,23.30
2017,06,26,02,30,23.30
2017,06,26,02,31,23.30
2017,06,26,02,32,23.30
2017,06,26,02,33,23.20
2017,06,26,02,34,23.20
2017,06,26,02,35,23.10
2017,06,26,02,36,23.00
2017,06,26,02,37,22.90
2017,06,26,02,38,22.90
2017,06,26,02,39,22.80
2017,06,26,02,40,22.70
2017,06,26,02,41,22.60
2017,06,26,02,42,22.50
2017,06,26,02,43,22.40
2017,06,26,02,44,22.30
2017,06,26,02,45,22.30
2017,06,26,02,46,22.30
2017,06,26,02,47,22.30
2017,06,26,02,48,22.30
2017,06,26,02,49,22.30
2017,06,26,02,50,22.30
2017,06,26,02,51,22.30
2017,06,26,02,52,22.30
2017,06,26,02,53,22.30
2017,06,26,02,54,22.30
2017,06,26,02,55,22.30
2017,06,26,02,56,22.20
2017,06,26,02,57,22.20
2017,06,26,02,58,22.10
2017,06,26,02,59,22.10
2017,06,26,03,00,22.00
2017,06,26,03,01,21.90
2017,06,26,03,02,21.90
2017,06,26,03,03,21.80
2017,06,26,03,04,21.70
2017,06,26,03,05,21.70
2017,06,26,03,06,21.70
2017,06,26,03,07,21.70
2017,06,26,03,08,21.60
2017,06,26,03,09,21.60
2017,06,26,03,10,21.50
2017,06,26,03,11,21.40
2017,06,26,03,12,21.30
2017,06,26,03,13,21.20
2017,06,26,03,14,21.10
2017,06,26,03,15,21.00
2017,06,26,03,16,21.00
2017,06,26,03,17,20.90
2017,06,26,03,18,20.90
2017,06,26,03,19,20.90
2017,06,26,03,20,20.90
2017,06,26,03,21,20.80
2017,06,26,03,22,20.80
2017,06,26,03,23,20.70
2017,06,26,03,24,20.60
2017,06,26,03,25,20.50
2017,06,26,03,26,20.40
2017,06,26,03,27,20.30
2017,06,26,03,28,20.10
2017,06,26,03,29,20.00
2017,06,26,03,30,19.80
2017,06,26,03,31,19.60
2017,06,26,03,32,19.50
2017,06,26,03,33,19.30
2017,06,26,03,34,19.20
2017,06,26,03,35,19.00
2017,06,26,03,36,18.90
2017,06,26,03,37,18.80
2017,06,26,03,38,18.80
2017,06,26,03,39,18.70
2017,06,26,03,40,18.60
2017,06,26,03,41,18.60
2017,06,26,03,42,18.50
2017,06,26,03,43,18.50
2017,06,26,03,44,18.40
2017,06,26,03,45,18.40
2017,06,26,03,46,18.40
2017,06,26,03,47,18.50
2017,06,26,03,48,18.50
2017,06,26,03,49,18.50
2017,06,26,03,50,18.60
2017,06,26,03,51,18.60
2017,06,26,03,52,18.60
2017,06,26,03,53,18.60
2017,06,26,03,54,18.60
2017,06,26,03,55,18.60
2017,06,26,03,56,18.60
2017,06,26,03,57,18.50
2017,06,26,03,58,18.50
2017,06,26,03,59,18.50
2017,06,26,04,00,18.50
2017,06,26,04,01,18.50
2017,06,26,04,02,18.40
2017,06,26,04,03,18.40
2017,06,26,04,04,18.40
2017,06,26,04,05,18.40
2017,06,26,04,06,18.30
2017,06,26,04,07,18.30
2017,06,26,04,08,18.30
2017,06,26,04,09,18.30
2017,06,26,04,10,18.30
2017,06,26,04,11,18.30
2017,06,26,04,12,18.40
2017,06,26,04,13,18.40
2017,06,26,04,14,18.40
2017,06,26,04,15,18.40
2017,06,26,04,16,18.40
2017,06,26,04,17,18.50
2017,06,26,04,18,18.50
2017,06,26,04,19,18.50
2017,06,26,04,20,18.50
2017,06,26,04,21,18.50
2017,06,26,04,22,18.50
2017,06,26,04,23,18.50
2017,06,26,04,24,18.60
2017,06,26,04,25,18.60
2017,06,26,04,26,18.70
2017,06,26,04,27,18.70
2017,06,26,04,28,18.80
2017,06,26,04,29,18.80
2017,06,26,04,30,18.80
2017,06,26,04,31,18.70
2017,06,26,04,32,18.70
2017,06,26,04,33,18.60
2017,06,26,04,34,18.50
2017,06,26,04,35,18.50
2017,06,26,04,36,18.40
2017,06,26,04,37,18.30
2017,06,26,04,38,18.20
2017,06,26,04,39,18.20
2017,06,26,04,40,18.10
2017,06,26,04,41,18.00
2017,06,26,04,42,18.00
2017,06,26,04,43,17.90
2017,06,26,04,44,17.90
2017,06,26,04,45,17.90
2017,06,26,04,46,17.80
2017,06,26,04,47,17.80
2017,06,26,04,48,17.80
2017,06,26,04,49,17.80
2017,06,26,04,50,17.80
2017,06,26,04,51,17.70
2017,06,26,04,52,17.70
2017,06,26,04,53,17.70
2017,06,26,04,54,17.70
2017,06,26,04,55,17.60
2017,06,26,04,56,17.60
2017,06,26,04,57,17.50
2017,06,26,04,58,17.50
2017,06,26,04,59,17.50
2017,06,26,05,00,17.40
2017,06,26,05,01,17.40
2017,06,26,05,02,17.40
2017,06,26,05,03,17.40
2017,06,26,05,04,17.40
2017,06,26,05,05,17.40
2017,06,26,05,06,17.30
2017,06,26,05,07,17.30
2017,06,26,05,08,17.30
2017,06,26,05,09,17.30
2017,06,26,05,10,17.30
2017,06,26,05,11,17.20
2017,06,26,05,12,17.10
2017,06,26,05,13,17.00
2017,06,26,05,14,16.90
2017,06,26,05,15,16.80
2017,06,26,05,16,16.80
2017,06,26,05,17,16.80
2017,06,26,05,18,16.80
2017,06,26,05,19,16.80
2017,06,26,05,20,16.80
2017,06,26,05,21,16.80
2017,06,26,05,22,16.70
2017,06,26,05,23,16.70
2017,06,26,05,24,16.70
2017,06,26,05,25,16.70
2017,06,26,05,26,16.60
2017,06,26,05,27,16.60
2017,06,26,05,28,16.60
2017,06,26,05,29,16.60
2017,06,26,05,30,16.60
2017,06,26,05,31,16.50
2017,06,26,05,32,16.50
2017,06,26,05,33,16.50
2017,06,26,05,34,16.50
2017,06,26,05,35,16.50
2017,06,26,05,36,16.40
2017,06,26,05,37,16.40
2017,06,26,05,38,16.40
2017,06,26,05,39,16.40
2017,06,26,05,40,16.40
2017,06,26,05,41,16.40
2017,06,26,05,42,16.30
2017,06,26,05,43,16.30
2017,06,26,05,44,16.30
2017,06,26,05,45,16.30
2017,06,26,05,46,16.20
2017,06,26,05,47,16.20
2017,06,26,05,48,16.20
2017,06,26,05,49,16.10
2017,06,26,05,50,16.10
2017,06,26,05,51,16.10
2017,06,26,05,52,16.10
2017,06,26,05,53,16.10
2017,06,26,05,54,16.10
2017,06,26,05,55,16.10
2017,06,26,05,56,16.10
2017,06,26,05,57,16.10
2017,06,26,05,58,16.10
2017,06,26,05,59,16.10
2017,06,26,06,00,16.00
2017,06,26,06,01,16.00
2017,06,26,06,02,16.00
2017,06,26,06,03,16.00
2017,06,26,06,04,16.00
2017,06,26,06,05,15.90
2017,06,26,06,06,15.90
2017,06,26,06,07,15.90
2017,06,26,06,08,15.90
2017,06,26,06,09,15.90
2017,06,26,06,10,15.90
2017,06,26,06,11,15.90
2017,06,26,06,12,15.90
2017,06,26,06,13,15.90
2017,06,26,06,14,15.90
2017,06,26,06,15,15.90
2017,06,26,06,16,15.90
2017,06,26,06,17,15.90
2017,06,26,06,18,16.00
2017,06,26,06,19,16.00
2017,06,26,06,20,16.00
2017,06,26,06,21,16.10
2017,06,26,06,22,16.10
2017,06,26,06,23,16.10
2017,06,26,06,24,16.20
2017,06,26,06,25,16.20
2017,06,26,06,26,16.20
2017,06,26,06,27,16.20
2017,06,26,06,28,16.30
2017,06,26,06,29,16.30
2017,06,26,06,30,16.30
2017,06,26,06,31,16.30
2017,06,26,06,32,16.30
2017,06,26,06,33,16.30
2017,06,26,06,34,16.30
2017,06,26,06,35,16.30
2017,06,26,06,36,16.30
2017,06,26,06,37,16.30
2017,06,26,06,38,16.20
2017,06,26,06,39,16.00
2017,06,26,06,40,15.90
2017,06,26,06,41,15.80
2017,06,26,06,42,15.60
2017,06,26,06,43,15.50
2017,06,26,06,44,15.40
2017,06,26,06,45,15.20
2017,06,26,06,46,15.10
2017,06,26,06,47,15.10
2017,06,26,06,48,15.00
2017,06,26,06,49,14.90
2017,06,26,06,50,14.90
2017,06,26,06,51,14.80
2017,06,26,06,52,14.80
2017,06,26,06,53,14.70
2017,06,26,06,54,14.70
2017,06,26,06,55,14.70
2017,06,26,06,56,14.60
2017,06,26,06,57,14.60
2017,06,26,06,58,14.50
2017,06,26,06,59,14.50
2017,06,26,07,00,14.50
2017,06,26,07,01,14.50
2017,06,26,07,02,14.50
2017,06,26,07,03,14.50
2017,06,26,07,04,14.60
2017,06,26,07,05,14.60
2017,06,26,07,06,14.60
2017,06,26,07,07,14.70
2017,06,26,07,08,14.70
2017,06,26,07,09,14.70
2017,06,26,07,10,14.70
2017,06,26,07,11,14.70
2017,06,26,07,12,14.70
2017,06,26,07,13,14.70
2017,06,26,07,14,14.70
2017,06,26,07,15,14.80
2017,06,26,07,16,14.80
2017,06,26,07,17,14.80
2017,06,26,07,18,14.90
2017,06,26,07,19,14.90
2017,06,26,07,20,15.00
2017,06,26,07,21,15.00
2017,06,26,07,22,15.10
2017,06,26,07,23,15.10
2017,06,26,07,24,15.20
2017,06,26,07,25,15.20
2017,06,26,07,26,15.20
2017,06,26,07,27,15.20
2017,06,26,07,28,15.30
2017,06,26,07,29,15.30
2017,06,26,07,30,15.30
2017,06,26,07,31,15.30
2017,06,26,07,32,15.40
2017,06,26,07,33,15.40
2017,06,26,07,34,15.40
2017,06,26,07,35,15.50
2017,06,26,07,36,15.50
2017,06,26,07,37,15.50
2017,06,26,07,38,15.60
2017,06,26,07,39,15.60
2017,06,26,07,40,15.70
2017,06,26,07,41,15.70
2017,06,26,07,42,15.70
2017,06,26,07,43,15.80
2017,06,26,07,44,15.80
2017,06,26,07,45,15.80
2017,06,26,07,46,15.90
2017,06,26,07,47,15.90
2017,06,26,07,48,15.90
2017,06,26,07,49,16.00
2017,06,26,07,50,16.00
2017,06,26,07,51,16.10
2017,06,26,07,52,16.10
2017,06,26,07,53,16.20
2017,06,26,07,54,16.20
2017,06,26,07,55,16.30
2017,06,26,07,56,16.30
2017,06,26,07,57,16.30
2017,06,26,07,58,16.30
2017,06,26,07,59,16.30
2017,06,26,08,00,16.40
2017,06,26,08,01,16.40
2017,06,26,08,02,16.30
2017,06,26,08,03,16.30
2017,06,26,08,04,16.30
2017,06,26,08,05,16.20
2017,06,26,08,06,16.20
2017,06,26,08,07,16.20
2017,06,26,08,08,16.10
2017,06,26,08,09,16.00
2017,06,26,08,10,15.90
2017,06,26,08,11,15.80
2017,06,26,08,12,15.70
2017,06,26,08,13,15.60
2017,06,26,08,14,15.50
2017,06,26,08,15,15.40
2017,06,26,08,16,15.40
2017,06,26,08,17,15.30
2017,06,26,08,18,15.20
2017,06,26,08,19,15.20
2017,06,26,08,20,15.20
2017,06,26,08,21,15.10
2017,06,26,08,22,15.10
2017,06,26,08,23,15.10
2017,06,26,08,24,15.10
2017,06,26,08,25,15.10
2017,06,26,08,26,15.10
2017,06,26,08,27,15.10
2017,06,26,08,28,15.10
2017,06,26,08,29,15.10
2017,06,26,08,30,15.10
2017,06,26,08,31,15.20
2017,06,26,08,32,15.20
2017,06,26,08,33,15.20
2017,06,26,08,34,15.20
2017,06,26,08,35,15.20
2017,06,26,08,36,15.20
2017,06,26,08,37,15.30
2017,06,26,08,38,15.30
2017,06,26,08,39,15.30
2017,06,26,08,40,15.30
2017,06,26,08,41,15.40
2017,06,26,08,42,15.40
2017,06,26,08,43,15.40
2017,06,26,08,44,15.30
2017,06,26,08,45,15.30
2017,06,26,08,46,15.20
2017,06,26,08,47,15.20
2017,06,26,08,48,15.20
2017,06,26,08,49,15.20
2017,06,26,08,50,15.20
2017,06,26,08,51,15.20
2017,06,26,08,52,15.20
2017,06,26,08,53,15.20
2017,06,26,08,54,15.20
2017,06,26,08,55,15.20
2017,06,26,08,56,15.30
2017,06,26,08,57,15.30
2017,06,26,08,58,15.40
2017,06,26,08,59,15.40
2017,06,26,09,00,15.50
2017,06,26,09,01,15.50
2017,06,26,09,02,15.50
2017,06,26,09,03,15.60
2017,06,26,09,04,15.60
2017,06,26,09,05,15.60
2017,06,26,09,06,15.60
2017,06,26,09,07,15.70
2017,06,26,09,08,15.70
2017,06,26,09,09,15.70
2017,06,26,09,10,15.70
2017,06,26,09,11,15.70
2017,06,26,09,12,15.70
2017,06,26,09,13,15.70
2017,06,26,09,14,15.70
2017,06,26,09,15,15.80
2017,06,26,09,16,15.80
2017,06,26,09,17,15.80
2017,06,26,09,18,15.80
2017,06,26,09,19,15.80
2017,06,26,09,20,15.80
2017,06,26,09,21,15.90
2017,06,26,09,22,15.90
2017,06,26,09,23,15.90
2017,06,26,09,24,16.00
2017,06,26,09,25,16.00
2017,06,26,09,26,16.10
2017,06,26,09,27,16.10
2017,06,26,09,28,16.10
2017,06,26,09,29,16.10
2017,06,26,09,30,16.10
2017,06,26,09,31,16.10
2017,06,26,09,32,16.20
2017,06,26,09,33,16.20
2017,06,26,09,34,16.20
2017,06,26,09,35,16.20
2017,06,26,09,36,16.30
2017,06,26,09,37,16.30
2017,06,26,09,38,16.30
2017,06,26,09,39,16.30
2017,06,26,09,40,16.20
2017,06,26,09,41,16.20
2017,06,26,09,42,16.20
2017,06,26,09,43,16.20
2017,06,26,09,44,16.10
2017,06,26,09,45,16.10
2017,06,26,09,46,16.10
2017,06,26,09,47,16.00
2017,06,26,09,48,16.00
2017,06,26,09,49,15.90
2017,06,26,09,50,15.80
2017,06,26,09,51,15.80
2017,06,26,09,52,15.80
2017,06,26,09,53,15.80
2017,06,26,09,54,15.80
2017,06,26,09,55,15.80
2017,06,26,09,56,15.90
2017,06,26,09,57,15.90
2017,06,26,09,58,16.00
2017,06,26,09,59,16.00
2017,06,26,10,00,16.10
2017,06,26,10,01,16.10
2017,06,26,10,02,16.10
2017,06,26,10,03,16.20
2017,06,26,10,04,16.20
2017,06,26,10,05,16.20
2017,06,26,10,06,16.20
2017,06,26,10,07,16.20
2017,06,26,10,08,16.20
2017,06,26,10,09,16.30
2017,06,26,10,10,16.30
2017,06,26,10,11,16.30
2017,06,26,10,12,16.30
2017,06,26,10,13,16.30
2017,06,26,10,14,16.30
2017,06,26,10,15,16.30
2017,06,26,10,16,16.30
2017,06,26,10,17,16.30
2017,06,26,10,18,16.30
2017,06,26,10,19,16.30
2017,06,26,10,20,16.30
2017,06,26,10,21,16.20
2017,06,26,10,22,16.20
2017,06,26,10,23,16.20
2017,06,26,10,24,16.20
2017,06,26,10,25,16.20
2017,06,26,10,26,16.10
2017,06,26,10,27,16.10
2017,06,26,10,28,16.00
2017,06,26,10,29,15.90
2017,06,26,10,30,15.80
2017,06,26,10,31,15.80
2017,06,26,10,32,15.80
2017,06,26,10,33,15.90
2017,06,26,10,34,15.90
2017,06,26,10,35,16.00
2017,06,26,10,36,16.10
2017,06,26,10,37,16.20
2017,06,26,10,38,16.30
2017,06,26,10,39,16.30
2017,06,26,10,40,16.40
2017,06,26,10,41,16.40
2017,06,26,10,42,16.50
2017,06,26,10,43,16.50
2017,06,26,10,44,16.50
2017,06,26,10,45,16.50
2017,06,26,10,46,16.40
2017,06,26,10,47,16.40
2017,06,26,10,48,16.30
2017,06,26,10,49,16.20
2017,06,26,10,50,16.10
2017,06,26,10,51,15.90
2017,06,26,10,52,15.70
2017,06,26,10,53,15.60
2017,06,26,10,54,15.50
2017,06,26,10,55,15.40
2017,06,26,10,56,15.30
2017,06,26,10,57,15.20
2017,06,26,10,58,15.10
2017,06,26,10,59,15.10
2017,06,26,11,00,15.10
2017,06,26,11,01,15.10
2017,06,26,11,02,15.10
2017,06,26,11,03,15.10
2017,06,26,11,04,15.00
2017,06,26,11,05,15.10
2017,06,26,11,06,15.10
2017,06,26,11,07,15.10
2017,06,26,11,08,15.10
2017,06,26,11,09,15.10
2017,06,26,11,10,15.10
2017,06,26,11,11,15.10
2017,06,26,11,12,15.10
2017,06,26,11,13,15.00
2017,06,26,11,14,15.00
2017,06,26,11,15,15.00
2017,06,26,11,16,14.90
2017,06,26,11,17,14.90
2017,06,26,11,18,14.90
2017,06,26,11,19,14.90
2017,06,26,11,20,15.00
2017,06,26,11,21,15.00
2017,06,26,11,22,15.00
2017,06,26,11,23,14.90
2017,06,26,11,24,14.90
2017,06,26,11,25,14.90
2017,06,26,11,26,14.80
2017,06,26,11,27,14.80
2017,06,26,11,28,14.80
2017,06,26,11,29,14.80
2017,06,26,11,30,14.70
2017,06,26,11,31,14.70
2017,06,26,11,32,14.60
2017,06,26,11,33,14.60
2017,06,26,11,34,14.60
2017,06,26,11,35,14.60
2017,06,26,11,36,14.60
2017,06,26,11,37,14.60
2017,06,26,11,38,14.60
2017,06,26,11,39,14.60
2017,06,26,11,40,14.60
2017,06,26,11,41,14.60
2017,06,26,11,42,14.60
2017,06,26,11,43,14.60
2017,06,26,11,44,14.60
2017,06,26,11,45,14.60
2017,06,26,11,46,14.60
2017,06,26,11,47,14.60
2017,06,26,11,48,14.60
2017,06,26,11,49,14.50
2017,06,26,11,50,14.40
2017,06,26,11,51,14.30
2017,06,26,11,52,14.10
2017,06,26,11,53,14.10
2017,06,26,11,54,14.10
2017,06,26,11,55,14.10
2017,06,26,11,56,14.10
2017,06,26,11,57,14.20
2017,06,26,11,58,14.30
2017,06,26,11,59,14.30
2017,06,26,12,00,14.30
2017,06,26,12,01,14.30
2017,06,26,12,02,14.30
2017,06,26,12,03,14.30
2017,06,26,12,04,14.30
2017,06,26,12,05,14.40
2017,06,26,12,06,14.40
2017,06,26,12,07,14.50
2017,06,26,12,08,14.50
2017,06,26,12,09,14.60
2017,06,26,12,10,14.60
2017,06,26,12,11,14.60
2017,06,26,12,12,14.60
2017,06,26,12,13,14.70
2017,06,26,12,14,14.70
2017,06,26,12,15,14.80
2017,06,26,12,16,14.80
2017,06,26,12,17,14.80
2017,06,26,12,18,14.80
2017,06,26,12,19,14.80
2017,06,26,12,20,14.80
2017,06,26,12,21,14.80
2017,06,26,12,22,14.80
2017,06,26,12,23,14.80
2017,06,26,12,24,14.80
2017,06,26,12,25,14.80
2017,06,26,12,26,14.80
2017,06,26,12,27,14.80
2017,06,26,12,28,14.80
2017,06,26,12,29,14.80
2017,06,26,12,30,14.80
2017,06,26,12,31,14.80
2017,06,26,12,32,14.90
2017,06,26,12,33,14.80
2017,06,26,12,34,14.80
2017,06,26,12,35,14.80
2017,06,26,12,36,14.80
2017,06,26,12,37,14.80
2017,06,26,12,38,14.70
2017,06,26,12,39,14.70
2017,06,26,12,40,14.70
2017,06,26,12,41,14.70
2017,06,26,12,42,14.70
2017,06,26,12,43,14.70
2017,06,26,12,44,14.80
2017,06,26,12,45,14.80
2017,06,26,12,46,14.80
2017,06,26,12,47,14.80
2017,06,26,12,48,14.80
2017,06,26,12,49,14.80
2017,06,26,12,50,14.90
2017,06,26,12,51,14.90
2017,06,26,12,52,14.90
2017,06,26,12,53,15.00
2017,06,26,12,54,15.00
2017,06,26,12,55,15.10
2017,06,26,12,56,15.10
2017,06,26,12,57,15.20
2017,06,26,12,58,15.20
2017,06,26,12,59,15.10
2017,06,26,13,00,15.10
2017,06,26,13,01,15.00
2017,06,26,13,02,15.00
2017,06,26,13,03,14.90
2017,06,26,13,04,14.90
2017,06,26,13,05,14.90
2017,06,26,13,06,14.90
2017,06,26,13,07,14.90
2017,06,26,13,08,14.90
2017,06,26,13,09,14.90
2017,06,26,13,10,14.80
2017,06,26,13,11,14.80
2017,06,26,13,12,14.80
2017,06,26,13,13,14.80
2017,06,26,13,14,14.80
2017,06,26,13,15,14.80
2017,06,26,13,16,14.80
2017,06,26,13,17,14.80
2017,06,26,13,18,14.80
2017,06,26,13,19,14.80
2017,06,26,13,20,14.90
2017,06,26,13,21,14.90
2017,06,26,13,22,15.00
2017,06,26,13,23,15.10
2017,06,26,13,24,15.10
2017,06,26,13,25,15.10
2017,06,26,13,26,15.10
2017,06,26,13,27,15.10
2017,06,26,13,28,15.10
2017,06,26,13,29,15.10
2017,06,26,13,30,15.10
2017,06,26,13,31,15.10
2017,06,26,13,32,15.20
2017,06,26,13,33,15.20
2017,06,26,13,34,15.30
2017,06,26,13,35,15.30
2017,06,26,13,36,15.30
2017,06,26,13,37,15.30
2017,06,26,13,38,15.30
2017,06,26,13,39,15.30
2017,06,26,13,40,15.30
2017,06,26,13,41,15.40
2017,06,26,13,42,15.40
2017,06,26,13,43,15.50
2017,06,26,13,44,15.60
2017,06,26,13,45,15.70
2017,06,26,13,46,15.70
2017,06,26,13,47,15.80
2017,06,26,13,48,15.90
2017,06,26,13,49,16.00
2017,06,26,13,50,16.00
2017,06,26,13,51,16.10
2017,06,26,13,52,16.10
2017,06,26,13,53,16.10
2017,06,26,13,54,16.20
2017,06,26,13,55,16.30
2017,06,26,13,56,16.40
2017,06,26,13,57,16.40
2017,06,26,13,58,16.50
2017,06,26,13,59,16.60
2017,06,26,14,00,16.60
2017,06,26,14,01,16.60
2017,06,26,14,02,16.70
2017,06,26,14,03,16.70
2017,06,26,14,04,16.80
2017,06,26,14,05,16.90
2017,06,26,14,06,16.90
2017,06,26,14,07,17.00
2017,06,26,14,08,17.10
2017,06,26,14,09,17.20
2017,06,26,14,10,17.30
2017,06,26,14,11,17.40
2017,06,26,14,12,17.40
2017,06,26,14,13,17.50
2017,06,26,14,14,17.60
2017,06,26,14,15,17.60
2017,06,26,14,16,17.70
2017,06,26,14,17,17.80
2017,06,26,14,18,17.90
2017,06,26,14,19,18.00
2017,06,26,14,20,18.10
2017,06,26,14,21,18.20
2017,06,26,14,22,18.40
2017,06,26,14,23,18.50
2017,06,26,14,24,18.70
2017,06,26,14,25,18.80
2017,06,26,14,26,18.90
2017,06,26,14,27,19.00
2017,06,26,14,28,19.10
2017,06,26,14,29,19.20
2017,06,26,14,30,19.40
2017,06,26,14,31,19.50
2017,06,26,14,32,19.60
2017,06,26,14,33,19.70
2017,06,26,14,34,19.80
2017,06,26,14,35,19.90
2017,06,26,14,36,20.00
2017,06,26,14,37,20.00
2017,06,26,14,38,20.10
2017,06,26,14,39,20.20
2017,06,26,14,40,20.30
2017,06,26,14,41,20.30
2017,06,26,14,42,20.40
2017,06,26,14,43,20.50
2017,06,26,14,44,20.50
2017,06,26,14,45,20.60
2017,06,26,14,46,20.70
2017,06,26,14,47,20.70
2017,06,26,14,48,20.80
2017,06,26,14,49,20.90
2017,06,26,14,50,20.90
2017,06,26,14,51,21.00
2017,06,26,14,52,21.10
2017,06,26,14,53,21.20
2017,06,26,14,54,21.30
2017,06,26,14,55,21.40
2017,06,26,14,56,21.40
2017,06,26,14,57,21.50
2017,06,26,14,58,21.60
2017,06,26,14,59,21.70
2017,06,26,15,00,21.70
2017,06,26,15,01,21.70
2017,06,26,15,02,21.80
2017,06,26,15,03,21.80
2017,06,26,15,04,21.90
2017,06,26,15,05,22.00
2017,06,26,15,06,22.10
2017,06,26,15,07,22.10
2017,06,26,15,08,22.20
2017,06,26,15,09,22.20
2017,06,26,15,10,22.30
2017,06,26,15,11,22.40
2017,06,26,15,12,22.50
2017,06,26,15,13,22.70
2017,06,26,15,14,22.70
2017,06,26,15,15,22.80
2017,06,26,15,16,22.90
2017,06,26,15,17,23.00
2017,06,26,15,18,23.10
2017,06,26,15,19,23.20
2017,06,26,15,20,23.30
2017,06,26,15,21,23.50
2017,06,26,15,22,23.60
2017,06,26,15,23,23.70
2017,06,26,15,24,23.80
2017,06,26,15,25,24.00
2017,06,26,15,26,24.10
2017,06,26,15,27,24.30
2017,06,26,15,28,24.40
2017,06,26,15,29,24.60
2017,06,26,15,30,24.70
2017,06,26,15,31,24.80
2017,06,26,15,32,24.80
2017,06,26,15,33,24.90
2017,06,26,15,34,24.90
2017,06,26,15,35,25.00
2017,06,26,15,36,25.00
2017,06,26,15,37,25.00
2017,06,26,15,38,25.00
2017,06,26,15,39,24.90
2017,06,26,15,40,24.90
2017,06,26,15,41,24.90
2017,06,26,15,42,24.90
2017,06,26,15,43,24.80
2017,06,26,15,44,24.80
2017,06,26,15,45,24.70
2017,06,26,15,46,24.70
2017,06,26,15,47,24.70
2017,06,26,15,48,24.70
2017,06,26,15,49,24.70
2017,06,26,15,50,24.70
2017,06,26,15,51,24.60
2017,06,26,15,52,24.60
2017,06,26,15,53,24.60
2017,06,26,15,54,24.60
2017,06,26,15,55,24.60
2017,06,26,15,56,24.60
2017,06,26,15,57,24.60
2017,06,26,15,58,24.60
2017,06,26,15,59,24.60
2017,06,26,16,00,24.60
2017,06,26,16,01,24.60
2017,06,26,16,02,24.60
2017,06,26,16,03,24.60
2017,06,26,16,04,24.50
2017,06,26,16,05,24.40
2017,06,26,16,06,24.40
2017,06,26,16,07,24.40
2017,06,26,16,08,24.30
2017,06,26,16,09,24.30
2017,06,26,16,10,24.30
2017,06,26,16,11,24.30
2017,06,26,16,12,24.30
2017,06,26,16,13,24.30
2017,06,26,16,14,24.20
2017,06,26,16,15,24.20
2017,06,26,16,16,24.30
2017,06,26,16,17,24.20
2017,06,26,16,18,24.20
2017,06,26,16,19,24.20
2017,06,26,16,20,24.20
2017,06,26,16,21,24.10
2017,06,26,16,22,24.00
2017,06,26,16,23,24.00
2017,06,26,16,24,23.90
2017,06,26,16,25,23.80
2017,06,26,16,26,23.80
2017,06,26,16,27,23.60
2017,06,26,16,28,23.60
2017,06,26,16,29,23.50
2017,06,26,16,30,23.40
2017,06,26,16,31,23.40
2017,06,26,16,32,23.30
2017,06,26,16,33,23.30
2017,06,26,16,34,23.20
2017,06,26,16,35,23.20
2017,06,26,16,36,23.10
2017,06,26,16,37,23.00
2017,06,26,16,38,22.80
2017,06,26,16,39,22.80
2017,06,26,16,40,22.70
2017,06,26,16,41,22.70
2017,06,26,16,42,22.70
2017,06,26,16,43,22.70
2017,06,26,16,44,22.70
2017,06,26,16,45,22.70
2017,06,26,16,46,22.70
2017,06,26,16,47,22.60
2017,06,26,16,48,22.60
2017,06,26,16,49,22.60
2017,06,26,16,50,22.50
2017,06,26,16,51,22.50
2017,06,26,16,52,22.60
2017,06,26,16,53,22.60
2017,06,26,16,54,22.60
2017,06,26,16,55,22.60
2017,06,26,16,56,22.60
2017,06,26,16,57,22.60
2017,06,26,16,58,22.60
2017,06,26,16,59,22.70
2017,06,26,17,00,22.60
2017,06,26,17,01,22.60
2017,06,26,17,02,22.60
2017,06,26,17,03,22.60
2017,06,26,17,04,22.70
2017,06,26,17,05,22.70
2017,06,26,17,06,22.70
2017,06,26,17,07,22.60
2017,06,26,17,08,22.60
2017,06,26,17,09,22.60
2017,06,26,17,10,22.60
2017,06,26,17,11,22.70
2017,06,26,17,12,22.70
2017,06,26,17,13,22.70
2017,06,26,17,14,22.70
2017,06,26,17,15,22.70
2017,06,26,17,16,22.80
2017,06,26,17,17,22.80
2017,06,26,17,18,22.80
2017,06,26,17,19,22.80